Time,TemperatureF,DewpointF,PressureIn,WindDirection,WindDirectionDegrees,WindSpeedMPH,WindSpeedGustMPH,Humidity,HourlyPrecipIn,Conditions,Clouds,dailyrainin,SoftwareType,DateUTC
2013-03-07 00:01:00,52.0,42.9,30.15,NW,317,6.0,11.0,71,0.00,,,0.00,Wunderground v.1.15,2013-03-07 05:01:00,
2013-03-07 00:10:00,51.9,42.8,30.16,NNW,336,7.0,11.0,71,0.00,,,0.00,Wunderground v.1.15,2013-03-07 05:10:00,
2013-03-07 00:15:00,51.7,42.6,30.16,NNW,343,6.0,6.0,71,0.00,,,0.00,Wunderground v.1.15,2013-03-07 05:15:00,
2013-03-07 00:20:00,51.5,42.8,30.16,NNW,327,6.0,11.0,72,0.00,,,0.00,Wunderground v.1.15,2013-03-07 05:20:00,
2013-03-07 00:25:00,51.5,42.8,30.15,NW,322,6.0,11.0,72,0.00,,,0.00,Wunderground v.1.15,2013-03-07 05:25:00,
2013-03-07 00:30:00,51.4,42.7,30.15,NNW,334,6.0,11.0,72,0.00,,,0.00,Wunderground v.1.15,2013-03-07 05:30:00,
2013-03-07 00:40:00,51.1,42.4,30.15,NW,323,6.0,11.0,72,0.00,,,0.00,Wunderground v.1.15,2013-03-07 05:40:00,
2013-03-07 00:45:00,50.7,42.4,30.15,NW,320,7.0,7.0,73,0.00,,,0.00,Wunderground v.1.15,2013-03-07 05:45:00,
2013-03-07 00:50:00,50.6,42.6,30.14,NNW,336,6.0,11.0,74,0.00,,,0.00,Wunderground v.1.15,2013-03-07 05:50:00,
2013-03-07 00:55:00,50.5,42.5,30.14,NNW,328,6.0,11.0,74,0.00,,,0.00,Wunderground v.1.15,2013-03-07 05:55:00,
2013-03-07 01:00:00,50.4,42.4,30.14,NW,316,5.0,7.0,74,0.00,,,0.00,Wunderground v.1.15,2013-03-07 06:00:00,
2013-03-07 01:10:00,49.7,42.1,30.14,NW,315,7.0,7.0,75,0.00,,,0.00,Wunderground v.1.15,2013-03-07 06:10:00,
2013-03-07 01:15:00,49.3,41.7,30.14,NW,313,8.0,8.0,75,0.00,,,0.00,Wunderground v.1.15,2013-03-07 06:15:00,
2013-03-07 01:25:00,48.6,41.7,30.14,NW,319,8.0,9.0,77,0.00,,,0.00,Wunderground v.1.15,2013-03-07 06:25:00,
2013-03-07 01:30:00,48.5,42.0,30.14,NW,317,7.0,8.0,78,0.00,,,0.00,Wunderground v.1.15,2013-03-07 06:30:00,
2013-03-07 01:35:00,48.5,42.0,30.14,NW,309,7.0,9.0,78,0.00,,,0.00,Wunderground v.1.15,2013-03-07 06:35:00,
2013-03-07 01:45:00,48.5,42.0,30.14,NW,319,7.0,9.0,78,0.00,,,0.00,Wunderground v.1.15,2013-03-07 06:45:00,
2013-03-07 01:50:00,48.4,41.9,30.14,NW,318,7.0,8.0,78,0.00,,,0.00,Wunderground v.1.15,2013-03-07 06:50:00,
2013-03-07 01:55:00,48.1,41.9,30.14,NW,313,8.0,8.0,79,0.00,,,0.00,Wunderground v.1.15,2013-03-07 06:55:00,
2013-03-07 02:00:00,48.0,41.8,30.14,NW,313,8.0,9.0,79,0.00,,,0.00,Wunderground v.1.15,2013-03-07 07:00:00,
2013-03-07 02:10:00,47.8,41.9,30.14,NW,323,6.0,9.0,80,0.00,,,0.00,Wunderground v.1.15,2013-03-07 07:10:00,
2013-03-07 02:20:00,47.8,41.9,30.13,NNW,331,6.0,9.0,80,0.00,,,0.00,Wunderground v.1.15,2013-03-07 07:20:00,
2013-03-07 02:25:00,47.8,42.3,30.13,NNW,331,6.0,9.0,81,0.00,,,0.00,Wunderground v.1.15,2013-03-07 07:25:00,
2013-03-07 02:30:00,48.0,42.1,30.13,NNW,329,5.0,5.0,80,0.00,,,0.00,Wunderground v.1.15,2013-03-07 07:30:00,
2013-03-07 02:35:00,48.2,42.3,30.13,NNW,327,6.0,8.0,80,0.00,,,0.00,Wunderground v.1.15,2013-03-07 07:35:00,
2013-03-07 02:40:00,48.5,42.3,30.13,NNW,330,6.0,9.0,79,0.00,,,0.00,Wunderground v.1.15,2013-03-07 07:40:00,
2013-03-07 02:45:00,48.7,42.1,30.13,NNW,348,6.0,9.0,78,0.00,,,0.00,Wunderground v.1.15,2013-03-07 07:45:00,
2013-03-07 02:50:00,48.9,42.0,30.13,NNW,330,6.0,6.0,77,0.00,,,0.00,Wunderground v.1.15,2013-03-07 07:50:00,
2013-03-07 02:55:00,49.1,41.9,30.13,NNW,327,6.0,9.0,76,0.00,,,0.00,Wunderground v.1.15,2013-03-07 07:55:00,
2013-03-07 03:05:00,49.5,40.8,30.13,NW,311,7.0,11.0,72,0.00,,,0.00,Wunderground v.1.15,2013-03-07 08:05:00,
2013-03-07 03:10:00,49.4,40.7,30.12,NW,318,8.0,8.0,72,0.00,,,0.00,Wunderground v.1.15,2013-03-07 08:10:00,
2013-03-07 03:20:00,49.1,40.5,30.12,NNW,341,8.0,11.0,72,0.00,,,0.00,Wunderground v.1.15,2013-03-07 08:20:00,
2013-03-07 03:25:00,48.9,39.9,30.13,NW,317,9.0,11.0,71,0.00,,,0.00,Wunderground v.1.15,2013-03-07 08:25:00,
2013-03-07 03:30:00,48.7,39.7,30.12,WNW,300,8.0,8.0,71,0.00,,,0.00,Wunderground v.1.15,2013-03-07 08:30:00,
2013-03-07 03:35:00,48.4,39.4,30.12,NW,321,7.0,10.0,71,0.00,,,0.00,Wunderground v.1.15,2013-03-07 08:35:00,
2013-03-07 03:40:00,48.2,39.2,30.13,North,11,6.0,11.0,71,0.00,,,0.00,Wunderground v.1.15,2013-03-07 08:40:00,
2013-03-07 03:45:00,48.0,39.0,30.12,WNW,303,7.0,11.0,71,0.00,,,0.00,Wunderground v.1.15,2013-03-07 08:45:00,
2013-03-07 03:50:00,47.8,38.5,30.12,North,5,7.0,7.0,70,0.00,,,0.00,Wunderground v.1.15,2013-03-07 08:50:00,
2013-03-07 04:00:00,47.6,38.7,30.13,North,355,7.0,7.0,71,0.00,,,0.00,Wunderground v.1.15,2013-03-07 09:00:00,
2013-03-07 04:10:00,47.4,38.5,30.13,NW,323,7.0,7.0,71,0.00,,,0.00,Wunderground v.1.15,2013-03-07 09:10:00,
2013-03-07 04:20:00,47.1,38.2,30.13,NW,317,6.0,11.0,71,0.00,,,0.00,Wunderground v.1.15,2013-03-07 09:20:00,
2013-03-07 04:25:00,46.9,38.3,30.13,NE,44,6.0,11.0,72,0.00,,,0.00,Wunderground v.1.15,2013-03-07 09:25:00,
2013-03-07 04:35:00,46.5,38.3,30.13,WNW,301,7.0,7.0,73,0.00,,,0.00,Wunderground v.1.15,2013-03-07 09:35:00,
2013-03-07 04:40:00,46.3,38.1,30.13,NW,324,6.0,11.0,73,0.00,,,0.00,Wunderground v.1.15,2013-03-07 09:40:00,
2013-03-07 04:45:00,46.2,38.0,30.13,NW,316,6.0,11.0,73,0.00,,,0.00,Wunderground v.1.15,2013-03-07 09:45:00,
2013-03-07 04:50:00,46.3,38.1,30.13,NW,326,7.0,7.0,73,0.00,,,0.00,Wunderground v.1.15,2013-03-07 09:50:00,
2013-03-07 04:55:00,46.2,38.0,30.13,NW,309,8.0,8.0,73,0.00,,,0.00,Wunderground v.1.15,2013-03-07 09:55:00,
2013-03-07 05:00:00,46.0,37.8,30.13,NNW,347,8.0,12.0,73,0.00,,,0.00,Wunderground v.1.15,2013-03-07 10:00:00,
2013-03-07 05:10:00,45.6,37.4,30.13,NNE,28,9.0,9.0,73,0.00,,,0.00,Wunderground v.1.15,2013-03-07 10:10:00,
2013-03-07 05:15:00,45.5,37.3,30.13,NNW,346,9.0,12.0,73,0.00,,,0.00,Wunderground v.1.15,2013-03-07 10:15:00,
2013-03-07 05:20:00,45.5,37.3,30.13,NW,325,8.0,8.0,73,0.00,,,0.00,Wunderground v.1.15,2013-03-07 10:20:00,
2013-03-07 05:25:00,45.4,37.2,30.14,NNW,333,7.0,12.0,73,0.00,,,0.00,Wunderground v.1.15,2013-03-07 10:25:00,
2013-03-07 05:30:00,45.3,37.2,30.14,NNE,18,6.0,12.0,73,0.00,,,0.00,Wunderground v.1.15,2013-03-07 10:30:00,
2013-03-07 05:35:00,45.4,36.9,30.15,NNW,331,6.0,12.0,72,0.00,,,0.00,Wunderground v.1.15,2013-03-07 10:35:00,
2013-03-07 05:45:00,45.4,37.2,30.15,NW,314,6.0,12.0,73,0.00,,,0.00,Wunderground v.1.15,2013-03-07 10:45:00,
2013-03-07 05:50:00,45.3,36.8,30.15,NNW,334,7.0,7.0,72,0.00,,,0.00,Wunderground v.1.15,2013-03-07 10:50:00,
2013-03-07 05:55:00,45.2,36.7,30.16,NNW,327,7.0,11.0,72,0.00,,,0.00,Wunderground v.1.15,2013-03-07 10:55:00,
2013-03-07 06:00:00,45.1,37.0,30.16,NW,326,6.0,6.0,73,0.00,,,0.00,Wunderground v.1.15,2013-03-07 11:00:00,
2013-03-07 06:10:00,45.1,37.0,30.17,NNW,344,3.0,3.0,73,0.00,,,0.00,Wunderground v.1.15,2013-03-07 11:10:00,
2013-03-07 06:20:00,44.9,36.8,30.17,NNW,340,2.0,2.0,73,0.00,,,0.00,Wunderground v.1.15,2013-03-07 11:20:00,
2013-03-07 06:25:00,44.7,36.6,30.17,NNW,348,3.0,5.0,73,0.00,,,0.00,Wunderground v.1.15,2013-03-07 11:25:00,
2013-03-07 06:30:00,44.5,36.4,30.17,NW,322,6.0,8.0,73,0.00,,,0.00,Wunderground v.1.15,2013-03-07 11:30:00,
2013-03-07 06:35:00,44.5,36.7,30.18,NW,326,4.0,8.0,74,0.00,,,0.00,Wunderground v.1.15,2013-03-07 11:35:00,
2013-03-07 06:40:00,44.4,36.3,30.19,NNW,327,1.0,8.0,73,0.00,,,0.00,Wunderground v.1.15,2013-03-07 11:40:00,
2013-03-07 06:50:00,43.7,35.6,30.19,NW,325,3.0,3.0,73,0.00,,,0.00,Wunderground v.1.15,2013-03-07 11:50:00,
2013-03-07 06:55:00,43.7,36.0,30.19,NNW,327,3.0,6.0,74,0.00,,,0.00,Wunderground v.1.15,2013-03-07 11:55:00,
2013-03-07 07:00:00,43.5,36.1,30.19,NW,325,4.0,6.0,75,0.00,,,0.00,Wunderground v.1.15,2013-03-07 12:00:00,
2013-03-07 07:10:00,43.7,36.0,30.20,NW,324,3.0,3.0,74,0.00,,,0.00,Wunderground v.1.15,2013-03-07 12:10:00,
2013-03-07 07:15:00,43.9,35.8,30.20,NW,323,3.0,5.0,73,0.00,,,0.00,Wunderground v.1.15,2013-03-07 12:15:00,
2013-03-07 07:25:00,44.2,35.7,30.21,NW,320,2.0,5.0,72,0.00,,,0.00,Wunderground v.1.15,2013-03-07 12:25:00,
2013-03-07 07:30:00,44.4,35.9,30.21,NW,324,3.0,6.0,72,0.00,,,0.00,Wunderground v.1.15,2013-03-07 12:30:00,
2013-03-07 07:35:00,44.8,36.3,30.21,NW,323,3.0,6.0,72,0.00,,,0.00,Wunderground v.1.15,2013-03-07 12:35:00,
2013-03-07 07:40:00,45.1,36.6,30.21,NW,321,3.0,6.0,72,0.00,,,0.00,Wunderground v.1.15,2013-03-07 12:40:00,
2013-03-07 07:45:00,45.2,36.0,30.21,NNW,329,4.0,6.0,70,0.00,,,0.00,Wunderground v.1.15,2013-03-07 12:45:00,
2013-03-07 07:50:00,45.5,36.6,30.21,NNW,333,4.0,6.0,71,0.00,,,0.00,Wunderground v.1.15,2013-03-07 12:50:00,
2013-03-07 08:00:00,46.0,36.4,30.21,NW,325,4.0,7.0,69,0.00,,,0.00,Wunderground v.1.15,2013-03-07 13:00:00,
2013-03-07 08:10:00,46.5,36.5,30.21,NNW,340,4.0,4.0,68,0.00,,,0.00,Wunderground v.1.15,2013-03-07 13:10:00,
2013-03-07 08:15:00,47.1,36.7,30.22,NNW,333,3.0,7.0,67,0.00,,,0.00,Wunderground v.1.15,2013-03-07 13:15:00,
2013-03-07 08:20:00,47.8,37.4,30.22,NNW,338,2.0,7.0,67,0.00,,,0.00,Wunderground v.1.15,2013-03-07 13:20:00,
2013-03-07 08:25:00,48.2,37.4,30.22,NNW,348,3.0,7.0,66,0.00,,,0.00,Wunderground v.1.15,2013-03-07 13:25:00,
2013-03-07 08:35:00,49.0,36.5,30.22,NNW,342,3.0,7.0,62,0.00,,,0.00,Wunderground v.1.15,2013-03-07 13:35:00,
2013-03-07 08:40:00,49.0,36.5,30.22,NW,315,4.0,4.0,62,0.00,,,0.00,Wunderground v.1.15,2013-03-07 13:40:00,
2013-03-07 08:45:00,49.6,36.7,30.22,North,350,4.0,7.0,61,0.00,,,0.00,Wunderground v.1.15,2013-03-07 13:45:00,
2013-03-07 08:50:00,50.1,37.2,30.22,NNW,333,2.0,2.0,61,0.00,,,0.00,Wunderground v.1.15,2013-03-07 13:50:00,
2013-03-07 08:55:00,50.8,37.8,30.22,NW,311,2.0,7.0,61,0.00,,,0.00,Wunderground v.1.15,2013-03-07 13:55:00,
2013-03-07 09:00:00,51.4,38.0,30.22,NE,34,2.0,7.0,60,0.00,,,0.00,Wunderground v.1.15,2013-03-07 14:00:00,
2013-03-07 09:10:00,51.5,37.2,30.22,NW,316,4.0,4.0,58,0.00,,,0.00,Wunderground v.1.15,2013-03-07 14:10:00,
2013-03-07 09:15:00,51.8,37.0,30.22,NNW,344,3.0,7.0,57,0.00,,,0.00,Wunderground v.1.15,2013-03-07 14:15:00,
2013-03-07 09:20:00,52.3,37.5,30.23,NW,311,2.0,2.0,57,0.00,,,0.00,Wunderground v.1.15,2013-03-07 14:20:00,
2013-03-07 09:30:00,53.0,36.8,30.23,NW,322,2.0,7.0,54,0.00,,,0.00,Wunderground v.1.15,2013-03-07 14:30:00,
2013-03-07 09:35:00,53.1,35.9,30.23,NNW,328,4.0,7.0,52,0.00,,,0.00,Wunderground v.1.15,2013-03-07 14:35:00,
2013-03-07 09:45:00,53.4,36.7,30.24,NNW,337,3.0,7.0,53,0.00,,,0.00,Wunderground v.1.15,2013-03-07 14:45:00,
2013-03-07 09:50:00,53.5,36.3,30.24,NNW,327,3.0,3.0,52,0.00,,,0.00,Wunderground v.1.15,2013-03-07 14:50:00,
2013-03-07 09:55:00,53.7,36.5,30.24,NNW,327,2.0,6.0,52,0.00,,,0.00,Wunderground v.1.15,2013-03-07 14:55:00,
2013-03-07 10:00:00,53.9,36.2,30.24,North,5,3.0,3.0,51,0.00,,,0.00,Wunderground v.1.15,2013-03-07 15:00:00,
2013-03-07 10:10:00,54.9,36.6,30.24,NW,309,2.0,4.0,50,0.00,,,0.00,Wunderground v.1.15,2013-03-07 15:10:00,
2013-03-07 10:20:00,54.8,34.4,30.24,NW,315,5.0,6.0,46,0.00,,,0.00,Wunderground v.1.15,2013-03-07 15:20:00,
2013-03-07 10:25:00,54.7,34.8,30.24,NW,319,5.0,6.0,47,0.00,,,0.00,Wunderground v.1.15,2013-03-07 15:25:00,
2013-03-07 10:30:00,55.0,35.1,30.24,NW,321,5.0,8.0,47,0.00,,,0.00,Wunderground v.1.15,2013-03-07 15:30:00,
2013-03-07 10:35:00,55.1,35.2,30.24,NNW,329,5.0,8.0,47,0.00,,,0.00,Wunderground v.1.15,2013-03-07 15:35:00,
2013-03-07 10:40:00,55.7,35.2,30.24,NW,321,5.0,5.0,46,0.00,,,0.00,Wunderground v.1.15,2013-03-07 15:40:00,
2013-03-07 10:50:00,56.1,35.0,30.24,NNE,23,4.0,4.0,45,0.00,,,0.00,Wunderground v.1.15,2013-03-07 15:50:00,
2013-03-07 10:55:00,56.7,35.6,30.24,NNW,328,4.0,4.0,45,0.00,,,0.00,Wunderground v.1.15,2013-03-07 15:55:00,
2013-03-07 11:00:00,57.4,35.6,30.24,WNW,289,3.0,3.0,44,0.00,,,0.00,Wunderground v.1.15,2013-03-07 16:00:00,
2013-03-07 11:10:00,57.7,35.3,30.23,NNW,339,2.0,8.0,43,0.00,,,0.00,Wunderground v.1.15,2013-03-07 16:10:00,
2013-03-07 11:15:00,58.1,35.7,30.23,NNW,341,3.0,8.0,43,0.00,,,0.00,Wunderground v.1.15,2013-03-07 16:15:00,
2013-03-07 11:25:00,59.5,35.8,30.23,NNE,30,2.0,5.0,41,0.00,,,0.00,Wunderground v.1.15,2013-03-07 16:25:00,
2013-03-07 11:30:00,59.6,35.9,30.23,NW,313,3.0,3.0,41,0.00,,,0.00,Wunderground v.1.15,2013-03-07 16:30:00,
2013-03-07 11:35:00,59.5,36.4,30.23,NNW,343,2.0,8.0,42,0.00,,,0.00,Wunderground v.1.15,2013-03-07 16:35:00,
2013-03-07 11:40:00,59.9,36.1,30.23,NNW,336,1.0,1.0,41,0.00,,,0.00,Wunderground v.1.15,2013-03-07 16:40:00,
2013-03-07 11:45:00,59.8,36.0,30.23,NW,325,2.0,3.0,41,0.00,,,0.00,Wunderground v.1.15,2013-03-07 16:45:00,
2013-03-07 11:50:00,59.6,36.5,30.23,NW,317,3.0,3.0,42,0.00,,,0.00,Wunderground v.1.15,2013-03-07 16:50:00,
2013-03-07 12:00:00,60.5,36.7,30.22,NNW,329,2.0,2.0,41,0.00,,,0.00,Wunderground v.1.15,2013-03-07 17:00:00,
2013-03-07 12:10:00,60.2,35.8,30.22,NNW,327,4.0,4.0,40,0.00,,,0.00,Wunderground v.1.15,2013-03-07 17:10:00,
2013-03-07 12:15:00,61.5,37.6,30.22,NW,313,3.0,6.0,41,0.00,,,0.00,Wunderground v.1.15,2013-03-07 17:15:00,
2013-03-07 12:20:00,61.3,36.1,30.22,NNW,328,3.0,3.0,39,0.00,,,0.00,Wunderground v.1.15,2013-03-07 17:20:00,
2013-03-07 12:25:00,61.5,37.6,30.21,NW,325,4.0,4.0,41,0.00,,,0.00,Wunderground v.1.15,2013-03-07 17:25:00,
2013-03-07 12:35:00,61.8,36.6,30.21,NW,309,5.0,5.0,39,0.00,,,0.00,Wunderground v.1.15,2013-03-07 17:35:00,
2013-03-07 12:40:00,62.0,36.1,30.21,NW,316,5.0,5.0,38,0.00,,,0.00,Wunderground v.1.15,2013-03-07 17:40:00,
2013-03-07 12:45:00,62.5,36.5,30.21,NW,319,3.0,8.0,38,0.00,,,0.00,Wunderground v.1.15,2013-03-07 17:45:00,
2013-03-07 12:50:00,62.3,36.4,30.20,WNW,283,2.0,11.0,38,0.00,,,0.00,Wunderground v.1.15,2013-03-07 17:50:00,
2013-03-07 12:55:00,62.4,37.1,30.20,North,355,5.0,11.0,39,0.00,,,0.00,Wunderground v.1.15,2013-03-07 17:55:00,
2013-03-07 13:00:00,62.7,37.4,30.19,NW,322,4.0,9.0,39,0.00,,,0.00,Wunderground v.1.15,2013-03-07 18:00:00,
2013-03-07 13:10:00,64.1,37.3,30.19,NW,321,2.0,2.0,37,0.00,,,0.00,Wunderground v.1.15,2013-03-07 18:10:00,
2013-03-07 13:15:00,65.5,37.8,30.19,NNW,331,0.0,4.0,36,0.00,,,0.00,Wunderground v.1.15,2013-03-07 18:15:00,
2013-03-07 13:20:00,64.7,36.4,30.19,NNW,337,2.0,9.0,35,0.00,,,0.00,Wunderground v.1.15,2013-03-07 18:20:00,
2013-03-07 13:25:00,64.6,37.0,30.18,NNW,338,4.0,9.0,36,0.00,,,0.00,Wunderground v.1.15,2013-03-07 18:25:00,
2013-03-07 13:35:00,64.9,36.6,30.18,NW,320,3.0,9.0,35,0.00,,,0.00,Wunderground v.1.15,2013-03-07 18:35:00,
2013-03-07 13:45:00,65.9,37.5,30.18,NW,322,3.0,9.0,35,0.00,,,0.00,Wunderground v.1.15,2013-03-07 18:45:00,
2013-03-07 13:50:00,65.7,35.8,30.18,NNW,331,3.0,3.0,33,0.00,,,0.00,Wunderground v.1.15,2013-03-07 18:50:00,
2013-03-07 13:55:00,65.9,36.7,30.17,NNW,344,3.0,9.0,34,0.00,,,0.00,Wunderground v.1.15,2013-03-07 18:55:00,
2013-03-07 14:00:00,67.1,37.8,30.17,NNW,328,2.0,2.0,34,0.00,,,0.00,Wunderground v.1.15,2013-03-07 19:00:00,
2013-03-07 14:10:00,66.5,38.0,30.17,NW,313,3.0,3.0,35,0.00,,,0.00,Wunderground v.1.15,2013-03-07 19:10:00,
2013-03-07 14:15:00,67.4,38.0,30.17,NW,317,1.0,4.0,34,0.00,,,0.00,Wunderground v.1.15,2013-03-07 19:15:00,
2013-03-07 14:20:00,67.8,37.6,30.17,NW,304,1.0,4.0,33,0.00,,,0.00,Wunderground v.1.15,2013-03-07 19:20:00,
2013-03-07 14:25:00,66.6,37.3,30.17,NW,306,4.0,11.0,34,0.00,,,0.00,Wunderground v.1.15,2013-03-07 19:25:00,
2013-03-07 14:30:00,66.2,37.7,30.16,NW,314,6.0,6.0,35,0.00,,,0.00,Wunderground v.1.15,2013-03-07 19:30:00,
2013-03-07 14:35:00,67.2,37.9,30.16,NNW,327,5.0,6.0,34,0.00,,,0.00,Wunderground v.1.15,2013-03-07 19:35:00,
2013-03-07 14:40:00,67.1,37.8,30.16,WNW,296,3.0,7.0,34,0.00,,,0.00,Wunderground v.1.15,2013-03-07 19:40:00,
2013-03-07 14:50:00,67.0,37.7,30.15,NNW,334,3.0,3.0,34,0.00,,,0.00,Wunderground v.1.15,2013-03-07 19:50:00,
2013-03-07 14:55:00,67.2,37.9,30.15,NW,304,3.0,4.0,34,0.00,,,0.00,Wunderground v.1.15,2013-03-07 19:55:00,
2013-03-07 15:00:00,67.3,37.2,30.15,NW,315,4.0,4.0,33,0.00,,,0.00,Wunderground v.1.15,2013-03-07 20:00:00,
2013-03-07 15:10:00,68.5,38.2,30.15,NNW,335,3.0,10.0,33,0.00,,,0.00,Wunderground v.1.15,2013-03-07 20:10:00,
2013-03-07 15:15:00,68.5,38.2,30.15,NW,312,4.0,10.0,33,0.00,,,0.00,Wunderground v.1.15,2013-03-07 20:15:00,
2013-03-07 15:25:00,67.5,36.6,30.15,NW,320,6.0,6.0,32,0.00,,,0.00,Wunderground v.1.15,2013-03-07 20:25:00,
2013-03-07 15:30:00,68.3,38.1,30.15,NW,320,2.0,2.0,33,0.00,,,0.00,Wunderground v.1.15,2013-03-07 20:30:00,
2013-03-07 15:35:00,69.3,38.9,30.14,WNW,296,2.0,5.0,33,0.00,,,0.00,Wunderground v.1.15,2013-03-07 20:35:00,
2013-03-07 15:40:00,69.8,39.4,30.14,NNW,337,3.0,5.0,33,0.00,,,0.00,Wunderground v.1.15,2013-03-07 20:40:00,
2013-03-07 15:45:00,69.5,39.1,30.14,NNW,336,4.0,5.0,33,0.00,,,0.00,Wunderground v.1.15,2013-03-07 20:45:00,
2013-03-07 15:50:00,69.9,38.7,30.15,NNW,329,4.0,4.0,32,0.00,,,0.00,Wunderground v.1.15,2013-03-07 20:50:00,
2013-03-07 16:00:00,68.8,36.9,30.15,NW,314,4.0,4.0,31,0.00,,,0.00,Wunderground v.1.15,2013-03-07 21:00:00,
2013-03-07 16:10:00,69.4,37.4,30.15,NW,314,2.0,2.0,31,0.00,,,0.00,Wunderground v.1.15,2013-03-07 21:10:00,
2013-03-07 16:15:00,69.8,38.6,30.14,NNW,335,3.0,6.0,32,0.00,,,0.00,Wunderground v.1.15,2013-03-07 21:15:00,
2013-03-07 16:20:00,70.5,38.4,30.14,NNW,340,2.0,2.0,31,0.00,,,0.00,Wunderground v.1.15,2013-03-07 21:20:00,
2013-03-07 16:25:00,69.5,36.7,30.14,NW,322,3.0,12.0,30,0.00,,,0.00,Wunderground v.1.15,2013-03-07 21:25:00,
2013-03-07 16:35:00,69.3,37.3,30.15,NNW,329,4.0,9.0,31,0.00,,,0.00,Wunderground v.1.15,2013-03-07 21:35:00,
2013-03-07 16:40:00,69.5,37.5,30.15,NW,311,3.0,11.0,31,0.00,,,0.00,Wunderground v.1.15,2013-03-07 21:40:00,
2013-03-07 16:45:00,69.4,37.4,30.15,NW,311,5.0,11.0,31,0.00,,,0.00,Wunderground v.1.15,2013-03-07 21:45:00,
2013-03-07 16:50:00,69.1,37.2,30.15,NW,323,7.0,7.0,31,0.00,,,0.00,Wunderground v.1.15,2013-03-07 21:50:00,
2013-03-07 16:55:00,69.1,37.2,30.15,WNW,302,5.0,9.0,31,0.00,,,0.00,Wunderground v.1.15,2013-03-07 21:55:00,
2013-03-07 17:00:00,69.5,37.5,30.15,NW,313,3.0,5.0,31,0.00,,,0.00,Wunderground v.1.15,2013-03-07 22:00:00,
2013-03-07 17:10:00,69.5,36.7,30.15,NW,313,3.0,8.0,30,0.00,,,0.00,Wunderground v.1.15,2013-03-07 22:10:00,
2013-03-07 17:15:00,69.3,37.3,30.15,NW,313,3.0,9.0,31,0.00,,,0.00,Wunderground v.1.15,2013-03-07 22:15:00,
2013-03-07 17:20:00,68.9,37.0,30.15,NW,313,5.0,5.0,31,0.00,,,0.00,Wunderground v.1.15,2013-03-07 22:20:00,
2013-03-07 17:25:00,69.0,37.9,30.15,NW,313,5.0,5.0,32,0.00,,,0.00,Wunderground v.1.15,2013-03-07 22:25:00,
2013-03-07 17:30:00,68.9,37.0,30.15,NW,312,4.0,9.0,31,0.00,,,0.00,Wunderground v.1.15,2013-03-07 22:30:00,
2013-03-07 17:40:00,68.8,37.7,30.15,NW,310,6.0,11.0,32,0.00,,,0.00,Wunderground v.1.15,2013-03-07 22:40:00,
2013-03-07 17:45:00,68.4,37.4,30.16,NW,309,5.0,11.0,32,0.00,,,0.00,Wunderground v.1.15,2013-03-07 22:45:00,
2013-03-07 17:50:00,68.4,37.4,30.16,NW,309,5.0,5.0,32,0.00,,,0.00,Wunderground v.1.15,2013-03-07 22:50:00,
2013-03-07 17:55:00,68.0,37.8,30.16,NW,309,5.0,6.0,33,0.00,,,0.00,Wunderground v.1.15,2013-03-07 22:55:00,
2013-03-07 18:00:00,67.0,43.8,30.16,WNW,302,5.0,10.0,43,0.00,,,0.00,Wunderground v.1.15,2013-03-07 23:00:00,
2013-03-07 18:10:00,64.3,44.7,30.16,WNW,296,7.0,9.0,49,0.00,,,0.00,Wunderground v.1.15,2013-03-07 23:10:00,
2013-03-07 18:15:00,63.3,45.4,30.16,WNW,292,8.0,9.0,52,0.00,,,0.00,Wunderground v.1.15,2013-03-07 23:15:00,
2013-03-07 18:20:00,62.6,45.2,30.17,WNW,298,7.0,7.0,53,0.00,,,0.00,Wunderground v.1.15,2013-03-07 23:20:00,
2013-03-07 18:25:00,61.9,45.1,30.17,WNW,302,7.0,10.0,54,0.00,,,0.00,Wunderground v.1.15,2013-03-07 23:25:00,
2013-03-07 18:30:00,61.3,45.0,30.17,WNW,291,7.0,9.0,55,0.00,,,0.00,Wunderground v.1.15,2013-03-07 23:30:00,
2013-03-07 18:35:00,60.8,45.0,30.17,WNW,293,7.0,9.0,56,0.00,,,0.00,Wunderground v.1.15,2013-03-07 23:35:00,
2013-03-07 18:40:00,60.2,44.9,30.18,WNW,294,7.0,7.0,57,0.00,,,0.00,Wunderground v.1.15,2013-03-07 23:40:00,
2013-03-07 18:50:00,59.7,45.3,30.18,WNW,299,6.0,9.0,59,0.00,,,0.00,Wunderground v.1.15,2013-03-07 23:50:00,
2013-03-07 18:55:00,59.3,45.4,30.18,WNW,290,6.0,9.0,60,0.00,,,0.00,Wunderground v.1.15,2013-03-07 23:55:00,
2013-03-07 19:00:00,58.9,45.5,30.18,WNW,292,6.0,6.0,61,0.00,,,0.00,Wunderground v.1.15,2013-03-08 00:00:00,
2013-03-07 19:10:00,58.4,45.8,30.18,WNW,290,6.0,8.0,63,0.00,,,0.00,Wunderground v.1.15,2013-03-08 00:10:00,
2013-03-07 19:15:00,58.1,46.0,30.18,WNW,290,6.0,8.0,64,0.00,,,0.00,Wunderground v.1.15,2013-03-08 00:15:00,
2013-03-07 19:25:00,57.4,46.1,30.19,WNW,290,5.0,8.0,66,0.00,,,0.00,Wunderground v.1.15,2013-03-08 00:25:00,
2013-03-07 19:30:00,57.2,45.9,30.19,WNW,290,3.0,3.0,66,0.00,,,0.00,Wunderground v.1.15,2013-03-08 00:30:00,
2013-03-07 19:35:00,57.2,45.9,30.19,WNW,290,1.0,8.0,66,0.00,,,0.00,Wunderground v.1.15,2013-03-08 00:35:00,
2013-03-07 19:40:00,57.2,45.9,30.19,WNW,290,1.0,8.0,66,0.00,,,0.00,Wunderground v.1.15,2013-03-08 00:40:00,
2013-03-07 19:45:00,57.1,45.8,30.19,WNW,290,2.0,8.0,66,0.00,,,0.00,Wunderground v.1.15,2013-03-08 00:45:00,
2013-03-07 19:55:00,56.7,46.3,30.19,WNW,290,0.0,8.0,68,0.00,,,0.00,Wunderground v.1.15,2013-03-08 00:55:00,
2013-03-07 20:00:00,56.5,46.1,30.20,WNW,290,1.0,6.0,68,0.00,,,0.00,Wunderground v.1.15,2013-03-08 01:00:00,
2013-03-07 20:10:00,56.0,46.0,30.20,WNW,290,5.0,5.0,69,0.00,,,0.00,Wunderground v.1.15,2013-03-08 01:10:00,
2013-03-07 20:20:00,55.3,46.1,30.20,WNW,290,6.0,6.0,71,0.00,,,0.00,Wunderground v.1.15,2013-03-08 01:20:00,
2013-03-07 20:25:00,55.1,45.9,30.20,WNW,291,6.0,6.0,71,0.00,,,0.00,Wunderground v.1.15,2013-03-08 01:25:00,
2013-03-07 20:35:00,54.7,46.2,30.21,WNW,291,5.0,6.0,73,0.00,,,0.00,Wunderground v.1.15,2013-03-08 01:35:00,
2013-03-07 20:40:00,54.5,46.0,30.21,WNW,289,5.0,6.0,73,0.00,,,0.00,Wunderground v.1.15,2013-03-08 01:40:00,
2013-03-07 20:45:00,54.3,45.8,30.21,WNW,288,5.0,6.0,73,0.00,,,0.00,Wunderground v.1.15,2013-03-08 01:45:00,
2013-03-07 20:50:00,54.3,45.8,30.21,WNW,288,4.0,4.0,73,0.00,,,0.00,Wunderground v.1.15,2013-03-08 01:50:00,
2013-03-07 20:55:00,54.2,46.1,30.22,WNW,289,3.0,5.0,74,0.00,,,0.00,Wunderground v.1.15,2013-03-08 01:55:00,
2013-03-07 21:00:00,54.1,46.0,30.22,WNW,290,2.0,4.0,74,0.00,,,0.00,Wunderground v.1.15,2013-03-08 02:00:00,
2013-03-07 21:10:00,53.8,46.1,30.22,WNW,290,1.0,1.0,75,0.00,,,0.00,Wunderground v.1.15,2013-03-08 02:10:00,
2013-03-07 21:15:00,53.7,46.0,30.22,WNW,290,1.0,1.0,75,0.00,,,0.00,Wunderground v.1.15,2013-03-08 02:15:00,
2013-03-07 21:20:00,53.5,46.1,30.22,WNW,290,2.0,2.0,76,0.00,,,0.00,Wunderground v.1.15,2013-03-08 02:20:00,
2013-03-07 21:25:00,53.2,46.2,30.22,WNW,290,2.0,4.0,77,0.00,,,0.00,Wunderground v.1.15,2013-03-08 02:25:00,
2013-03-07 21:30:00,53.1,46.1,30.22,WNW,291,1.0,1.0,77,0.00,,,0.00,Wunderground v.1.15,2013-03-08 02:30:00,
2013-03-07 21:40:00,52.8,46.5,30.22,WNW,291,2.0,5.0,79,0.00,,,0.00,Wunderground v.1.15,2013-03-08 02:40:00,
2013-03-07 21:45:00,52.8,46.5,30.22,WNW,292,5.0,5.0,79,0.00,,,0.00,Wunderground v.1.15,2013-03-08 02:45:00,
2013-03-07 21:50:00,52.8,46.5,30.22,WNW,292,4.0,4.0,79,0.00,,,0.00,Wunderground v.1.15,2013-03-08 02:50:00,
2013-03-07 21:55:00,52.8,46.5,30.22,WNW,292,3.0,8.0,79,0.00,,,0.00,Wunderground v.1.15,2013-03-08 02:55:00,
2013-03-07 22:00:00,52.7,46.4,30.22,WNW,292,3.0,3.0,79,0.00,,,0.00,Wunderground v.1.15,2013-03-08 03:00:00,
2013-03-07 22:10:00,52.6,46.3,30.22,WNW,292,1.0,1.0,79,0.00,,,0.00,Wunderground v.1.15,2013-03-08 03:10:00,
2013-03-07 22:15:00,52.6,46.3,30.23,WNW,292,1.0,2.0,79,0.00,,,0.00,Wunderground v.1.15,2013-03-08 03:15:00,
2013-03-07 22:20:00,52.4,46.4,30.22,WNW,292,1.0,1.0,80,0.00,,,0.00,Wunderground v.1.15,2013-03-08 03:20:00,
2013-03-07 22:25:00,52.3,46.3,30.22,WNW,292,3.0,3.0,80,0.00,,,0.00,Wunderground v.1.15,2013-03-08 03:25:00,
2013-03-07 22:30:00,52.2,46.5,30.22,WNW,292,5.0,5.0,81,0.00,,,0.00,Wunderground v.1.15,2013-03-08 03:30:00,
2013-03-07 22:35:00,52.0,46.3,30.22,WNW,292,5.0,5.0,81,0.00,,,0.00,Wunderground v.1.15,2013-03-08 03:35:00,
2013-03-07 22:40:00,52.1,46.4,30.22,WNW,292,6.0,6.0,81,0.00,,,0.00,Wunderground v.1.15,2013-03-08 03:40:00,
2013-03-07 22:50:00,51.8,46.2,30.22,WNW,292,4.0,5.0,81,0.00,,,0.00,Wunderground v.1.15,2013-03-08 03:50:00,
2013-03-07 22:55:00,51.7,46.4,30.22,WNW,292,5.0,6.0,82,0.00,,,0.00,Wunderground v.1.15,2013-03-08 03:55:00,
2013-03-07 23:00:00,51.5,46.2,30.21,WNW,292,5.0,8.0,82,0.00,,,0.00,Wunderground v.1.15,2013-03-08 04:00:00,
2013-03-07 23:10:00,51.5,46.2,30.22,WNW,292,4.0,8.0,82,0.00,,,0.00,Wunderground v.1.15,2013-03-08 04:10:00,
2013-03-07 23:15:00,51.4,46.1,30.22,WNW,292,3.0,8.0,82,0.00,,,0.00,Wunderground v.1.15,2013-03-08 04:15:00,
2013-03-07 23:25:00,51.5,46.2,30.21,WNW,292,2.0,8.0,82,0.00,,,0.00,Wunderground v.1.15,2013-03-08 04:25:00,
2013-03-07 23:30:00,51.8,46.2,30.21,WNW,292,2.0,8.0,81,0.00,,,0.00,Wunderground v.1.15,2013-03-08 04:30:00,
2013-03-07 23:35:00,52.1,46.1,30.21,WNW,294,3.0,8.0,80,0.00,,,0.00,Wunderground v.1.15,2013-03-08 04:35:00,
2013-03-07 23:40:00,52.4,46.1,30.21,NW,304,4.0,4.0,79,0.00,,,0.00,Wunderground v.1.15,2013-03-08 04:40:00,
2013-03-07 23:45:00,52.6,45.9,30.21,NW,317,4.0,7.0,78,0.00,,,0.00,Wunderground v.1.15,2013-03-08 04:45:00,
2013-03-07 23:55:00,52.4,45.4,30.21,NNW,327,5.0,8.0,77,0.00,,,0.00,Wunderground v.1.15,2013-03-08 04:55:00,